DW8004 Weather Reports


time (UTC)temp
C
wind
direction
speed
KPH
gust
KPH
rain 1hr
cm
rain 24hr
cm
rain mn
cm
humidity
%
barometer
mb
20260510204550 15 311 0.0 0.0 0.00 0.05 0.00 60 1011.2
20260510203037 15 263 0.0 0.0 0.00 0.05 0.00 62 1011.5
20260510201540 15 244 0.0 0.0 0.00 0.05 0.00 63 1011.5
20260510200006 15 324 0.0 0.0 0.00 0.25 0.00 65 1011.5
20260510194522 15 323 0.0 0.0 0.00 0.25 0.00 66 1011.7
20260510193108 15 228 0.0 0.0 0.00 0.25 0.00 70 1011.8
20260510191546 14 228 0.0 0.0 0.00 0.25 0.00 72 1011.9
20260510190017 13 275 0.0 0.0 0.00 0.51 0.00 76 1012.2
20260510184503 14 321 0.0 0.0 0.00 0.51 0.00 77 1012.3
20260510183012 14 221 0.0 0.0 0.00 0.51 0.00 77 1012.4
20260510181604 14 325 0.0 0.0 0.00 0.51 0.00 76 1012.2
20260510180058 14 315 0.0 0.0 0.00 0.76 0.00 77 1012.1
20260510174530 15 277 0.0 0.0 0.00 0.76 0.00 76 1011.9
20260510173002 14 304 0.0 0.0 0.00 0.76 0.00 78 1011.9
20260510171606 14 351 0.0 0.0 0.00 0.76 0.00 79 1012.0
20260510170106 13 262 0.0 0.0 0.00 0.97 0.00 80 1012.1
20260510164559 13 182 0.0 0.0 0.00 0.97 0.00 79 1012.2
20260510163046 13 300 0.0 0.0 0.00 0.97 0.00 81 1012.3
20260510161603 12 286 0.0 0.0 0.00 0.97 0.00 81 1012.4
20260510160112 13 331 0.0 0.0 0.00 1.19 0.00 79 1012.1
20260510154617 13 217 0.0 0.0 0.00 1.19 0.00 79 1012.0
20260510153036 13 252 0.0 0.0 0.00 1.19 0.00 78 1011.8
20260510151541 14 173 0.0 0.0 0.00 1.19 0.00 79 1011.7
20260510150030 13 66 0.0 0.0 0.00 1.35 0.00 78 1011.6
20260510144502 13 255 0.0 0.0 0.00 1.35 0.00 81 1011.4
20260510143054 13 236 0.0 0.0 0.00 1.35 0.00 85 1011.3
20260510141533 12 106 0.0 0.0 0.00 1.35 0.00 86 1011.4
20260510140011 12 214 0.0 0.0 0.00 1.42 0.00 86 1011.4
20260510134608 12 265 0.0 0.0 0.00 1.42 0.00 87 1011.3
20260510133100 11 119 0.0 0.0 0.00 1.42 0.00 88 1011.4
20260510131600 11 38 0.0 0.0 0.00 1.42 0.00 90 1011.8
20260510130016 10 180 0.0 0.0 0.00 1.50 0.00 91 1011.8
20260510124508 11 267 0.0 0.0 0.00 1.50 0.00 94 1011.6
20260510123059 10 267 0.0 0.0 0.00 1.50 0.00 95 1011.5
20260510121543 10 350 0.0 0.0 0.00 1.50 0.00 97 1011.7
20260510120004 8 205 0.0 0.0 0.00 1.50 0.00 97 1011.9
20260510114605 8 205 0.0 0.0 0.00 1.50 0.00 97 1011.9
20260510113100 8 182 0.0 0.0 0.00 1.50 0.00 97 1012.0
20260510111554 8 232 0.0 0.0 0.00 1.50 0.00 97 1011.9
20260510110051 8 324 0.0 0.0 0.00 1.50 0.00 98 1011.5
20260510104558 8 324 0.0 0.0 0.00 1.50 0.00 97 1011.2
20260510103036 8 329 0.0 0.0 0.00 1.50 0.00 98 1011.1
20260510101509 8 283 0.0 0.0 0.00 1.50 0.00 98 1011.1
20260510100101 8 312 0.0 0.0 0.00 1.50 0.00 97 1010.8
20260510094513 8 71 0.0 0.0 0.00 1.50 0.00 98 1010.5
20260510093009 7 71 0.0 0.0 0.00 1.50 0.00 97 1010.6
20260510091508 7 71 0.0 0.0 0.00 1.50 0.00 97 1010.3
20260510090127 7 71 0.0 0.0 0.00 1.50 0.00 97 1010.3
20260510084556 8 71 0.0 0.0 0.00 1.50 0.00 97 1010.3
20260510083031 7 71 0.0 0.0 0.00 1.50 0.00 97 1010.7
20260510081604 8 71 0.0 0.0 0.00 1.50 0.00 97 1010.9
20260510080058 8 69 0.0 0.0 0.00 1.50 0.00 97 1010.9
20260510074557 8 69 0.0 0.0 0.00 1.50 0.00 97 1010.9
20260510073051 8 69 0.0 0.0 0.00 1.50 0.00 97 1011.1
20260510071541 8 69 0.0 0.0 0.00 1.50 0.00 97 1010.9
20260510070044 7 69 0.0 0.0 0.00 1.50 0.00 97 1010.7
20260510064638 7 69 0.0 0.0 0.00 1.50 0.00 97 1010.6
20260510063054 7 69 0.0 0.0 0.00 1.50 0.00 98 1010.8
20260510061542 7 68 0.0 0.0 0.00 1.50 0.00 98 1010.9
20260510060024 7 105 0.0 0.0 0.00 1.50 0.00 98 1011.0
20260510054555 7 237 0.0 0.0 0.00 1.50 0.00 97 1011.0
20260510053100 7 69 0.0 0.0 0.00 1.50 0.00 97 1010.9
20260510051604 7 69 0.0 0.0 0.00 1.50 0.00 97 1011.1
20260510050043 7 69 0.0 0.0 0.00 1.50 0.00 97 1011.2
20260510044532 7 69 0.0 0.0 0.00 1.50 0.00 97 1011.3
20260510043041 7 69 0.0 0.0 0.00 1.50 0.00 97 1011.3
20260510041537 7 69 0.0 0.0 0.00 1.50 0.00 97 1011.4
20260510034530 7 69 0.0 0.0 0.00 1.50 1.50 97 1011.6
20260510033004 7 69 0.0 0.0 0.00 1.50 1.50 97 1011.5
20260510031610 7 69 0.0 0.0 0.00 1.50 1.50 97 1011.5
20260510030100 7 69 0.0 0.0 0.00 1.50 1.50 97 1011.6
20260510024555 7 69 0.0 0.0 0.00 1.50 1.50 97 1011.5
20260510023054 7 69 0.0 0.0 0.00 1.50 1.50 97 1011.5
20260510021557 7 67 0.0 0.0 0.00 1.50 1.50 97 1011.6
20260510020036 7 93 0.0 0.0 0.00 1.50 1.50 96 1011.9
20260510014539 7 93 0.0 0.0 0.00 1.50 1.50 96 1012.0
20260510013023 7 93 0.0 0.0 0.00 1.50 1.50 97 1011.9
20260510011607 7 93 0.0 0.0 0.00 1.50 1.50 96 1011.9
20260510004540 7 93 0.0 0.0 0.00 1.50 1.50 96 1011.5
20260510003021 7 96 0.0 0.0 0.00 1.50 1.50 96 1011.4
20260510001508 7 94 0.0 0.0 0.00 1.50 1.50 96 1011.3
20260510000006 7 94 0.0 0.0 0.00 1.50 1.50 96 1011.0
20260509234533 7 94 0.0 0.0 0.00 1.50 1.50 96 1011.0
20260509233101 7 94 0.0 0.0 0.00 1.50 1.50 96 1010.9
20260509231603 7 105 0.0 0.0 0.00 1.50 1.50 96 1011.0
20260509230031 7 91 0.0 0.0 0.00 1.50 1.50 96 1010.8
20260509224513 7 105 0.0 0.0 0.00 1.50 1.50 96 1010.9
20260509223048 7 127 0.0 0.0 0.00 1.50 1.50 96 1010.9
20260509221536 7 81 0.0 0.0 0.00 1.50 1.50 96 1010.9
20260509220103 7 108 0.0 0.0 0.00 1.50 1.50 96 1010.9
20260509214545 7 108 0.0 0.0 0.03 1.50 1.50 96 1011.0
20260509213035 7 108 0.0 0.0 0.03 1.50 1.50 96 1011.1
20260509211502 6 108 0.0 0.0 0.05 1.50 1.50 96 1011.3
20260509210112 6 107 0.0 0.0 0.05 1.50 1.50 96 1011.5